WetterOnline ( http://www.wetteronline.de )

Wetter aktuell Valley

Aktuelles Wetter: München/Stadt (535m)

6-stündlich | Neueste Meldungen
Ortszeit Temperatur Wetter
Di, 21.08. 2:00 19.0° C bedeckt
Mo, 20.08. 20:00 26.8° C wolkenlos
Mo, 20.08. 14:00 27.9° C fast wolkenlos
Mo, 20.08. 8:00 19.6° C wolkenlos
Mo, 20.08. 2:00 19.3° C wolkig
So, 19.08. 20:00 26.3° C wolkenlos
So, 19.08. 14:00 28.8° C leicht bewölkt
So, 19.08. 8:00 18.6° C wolkenlos
Ortszeit Temperatur Wetter
Di, 21.08. 4:30 17.7° C leicht bewölkt
Di, 21.08. 4:20 17.7° C leicht bewölkt
Di, 21.08. 4:10 17.8° C bedeckt
Di, 21.08. 4:00 17.9° C leicht bewölkt
Di, 21.08. 3:50 17.9° C leicht bewölkt
Di, 21.08. 3:40 18.2° C fast wolkenlos
Di, 21.08. 3:30 18.1° C leicht bewölkt
Di, 21.08. 3:00 18.4° C wolkig
Di, 21.08. 2:30 18.3° C bedeckt
Di, 21.08. 2:00 19.0° C bedeckt
Di, 21.08. 1:30 19.2° C leicht bewölkt
Ortszeit Relative Feuchte Sichtweite
Di, 21.08. 2:00 71% 35 km
Mo, 20.08. 20:00 40% 60 km
Mo, 20.08. 14:00 36% 27 km
Mo, 20.08. 8:00 70% 24 km
Mo, 20.08. 2:00 71% 30 km
So, 19.08. 20:00 42% 60 km
So, 19.08. 14:00 39% 21 km
So, 19.08. 8:00 80% 13 km
Ortszeit Relative Feuchte Sichtweite
Di, 21.08. 4:30 77% 35 km
Di, 21.08. 4:20 77% -
Di, 21.08. 4:10 77% -
Di, 21.08. 4:00 76% 30 km
Di, 21.08. 3:50 76% -
Di, 21.08. 3:40 75% -
Di, 21.08. 3:30 75% 35 km
Di, 21.08. 3:00 73% 35 km
Di, 21.08. 2:30 74% 35 km
Di, 21.08. 2:00 71% 35 km
Di, 21.08. 1:30 70% 40 km
Ortszeit Niederschlagsmenge Niederschlagsart
Di, 21.08. 2:00 0.0 l/m2 in 6 Std. -
Mo, 20.08. 20:00 0.0 l/m2 in 12 Std. -
Mo, 20.08. 14:00 0.0 l/m2 in 6 Std. -
Mo, 20.08. 8:00 0.0 l/m2 in 12 Std. -
Mo, 20.08. 2:00 0.0 l/m2 in 6 Std. -
So, 19.08. 20:00 0.0 l/m2 in 12 Std. -
So, 19.08. 14:00 0.0 l/m2 in 6 Std. -
So, 19.08. 8:00 0.0 l/m2 in 12 Std. -
Ortszeit Niederschlagsmenge Niederschlagsart
Di, 21.08. 4:30 0.0 l/m2 in 1 Std. -
Di, 21.08. 4:20 keine Meldung -
Di, 21.08. 4:10 keine Meldung -
Di, 21.08. 4:00 0.0 l/m2 in 1 Std. -
Di, 21.08. 3:50 keine Meldung -
Di, 21.08. 3:40 keine Meldung -
Di, 21.08. 3:30 0.0 l/m2 in 1 Std. -
Di, 21.08. 3:00 0.0 l/m2 in 1 Std. -
Di, 21.08. 2:30 0.0 l/m2 in 1 Std. -
Di, 21.08. 2:00 0.0 l/m2 in 1 Std. -
Di, 21.08. 1:30 0.0 l/m2 in 1 Std. -
Ortszeit Stärke Spitze Richtung
km/h Bft. km/h Grad Sektor
Di, 21.08. 2:00 7 2 14 260° W
Mo, 20.08. 20:00 7 2 25 340° N
Mo, 20.08. 14:00 7 2 22 280° W
Mo, 20.08. 8:00 11 2 14 250° W
Mo, 20.08. 2:00 6 1 13 220° SW
So, 19.08. 20:00 6 1 19 10° N
So, 19.08. 14:00 7 2 18 60° NO
So, 19.08. 8:00 7 2 11 260° W
Ortszeit Stärke Spitze Richtung
km/h Bft. km/h Grad Sektor
Di, 21.08. 4:30 4 1 7 260° W
Di, 21.08. 4:20 4 1 - 260° W
Di, 21.08. 4:10 7 2 - 260° W
Di, 21.08. 4:00 6 1 7 260° W
Di, 21.08. 3:50 6 1 - 260° W
Di, 21.08. 3:40 7 2 - 250° W
Di, 21.08. 3:30 6 1 7 260° W
Di, 21.08. 3:00 6 1 11 290° W
Di, 21.08. 2:30 7 2 11 300° NW
Di, 21.08. 2:00 7 2 7 260° W
Di, 21.08. 1:30 6 1 6 270° W
Ortszeit Untergrenze Bedeckung Gattung
total tief tief mittel hoch
Di, 21.08. 2:00 - 8/8 - - - -
Mo, 20.08. 20:00 - 0/8 0/8 - - -
Mo, 20.08. 14:00 10500 m 2/8 0/8 - - -
Mo, 20.08. 8:00 - 0/8 0/8 - - -
Mo, 20.08. 2:00 10500 m 8/8 0/8 - - -
So, 19.08. 20:00 - 0/8 0/8 - - -
So, 19.08. 14:00 1800 m 4/8 - - - -
So, 19.08. 8:00 - 0/8 0/8 - - -
Ortszeit Bedeckungsgrad in Achtel und Wolkenuntergrenze
Di, 21.08. 4:30 2(2700m)
Di, 21.08. 4:20 2(2700m)
Di, 21.08. 4:10 9 9 9
Di, 21.08. 4:00 2(2700m)
Di, 21.08. 3:50 2(2700m)
Di, 21.08. 3:40 1(3000m)
Di, 21.08. 3:30 2(3000m) 4(3600m)
Di, 21.08. 3:00 2(3000m) 3(3600m) 9
Di, 21.08. 2:30 9 9 9
Di, 21.08. 2:00 9 9 9
Di, 21.08. 1:30 2(2700m)
Ortszeit Luftdruck NN (hPa) Tendenz (hPa in 3 Std.)
Di, 21.08. 2:00 1019 + 0,7
Mo, 20.08. 20:00 1016 - 0,3
Mo, 20.08. 14:00 1017 - 0,8
Mo, 20.08. 8:00 1019 + 0,5
Mo, 20.08. 2:00 1019 + 0,1
So, 19.08. 20:00 1016 - 0,4
So, 19.08. 14:00 1018 - 1,2
So, 19.08. 8:00 1021 + 0,4
Ortszeit Luftdruck NN (hPa) Tendenz (hPa in 3 Std.)
Di, 21.08. 4:30 1020 + 0,3
Di, 21.08. 4:20 1020 keine Meldung
Di, 21.08. 4:10 1020 keine Meldung
Di, 21.08. 4:00 1020 + 0,4
Di, 21.08. 3:50 1020 keine Meldung
Di, 21.08. 3:40 1019 keine Meldung
Di, 21.08. 3:30 1019 + 0,4
Di, 21.08. 3:00 1019 + 0,3
Di, 21.08. 2:30 1019 + 0,4
Di, 21.08. 2:00 1019 + 0,7
Di, 21.08. 1:30 1019 + 0,7
Ortszeit Schneehöhe (cm)
Di, 21.08. 2:00 -
Mo, 20.08. 20:00 -
Mo, 20.08. 14:00 -
Mo, 20.08. 8:00 -
Mo, 20.08. 2:00 -
So, 19.08. 20:00 -
So, 19.08. 14:00 -
So, 19.08. 8:00 -
Ortszeit Schneehöhe (cm)
Di, 21.08. 4:30 -
Di, 21.08. 4:20 -
Di, 21.08. 4:10 -
Di, 21.08. 4:00 -
Di, 21.08. 3:50 -
Di, 21.08. 3:40 -
Di, 21.08. 3:30 -
Di, 21.08. 3:00 -
Di, 21.08. 2:30 -
Di, 21.08. 2:00 -
Di, 21.08. 1:30 -
Link zu dieser Seite / Seite empfehlen

Das Wetter in ...